Time,TemperatureF,DewpointF,PressureIn,WindDirection,WindDirectionDegrees,WindSpeedMPH,WindSpeedGustMPH,Humidity,HourlyPrecipIn,Conditions,Clouds,dailyrainin,SoftwareType,DateUTC
2013-03-17 00:03:00,52.0,47.0,30.03,WSW,242,0.0,0.0,82,0.00,,,0.00,,2013-03-17 04:03:00,
2013-03-17 00:13:00,52.0,47.0,30.03,WSW,242,0.0,0.0,82,0.00,,,0.00,,2013-03-17 04:13:00,
2013-03-17 00:23:00,52.0,47.0,30.03,WSW,242,0.0,0.0,83,0.00,,,0.00,,2013-03-17 04:23:00,
2013-03-17 00:33:00,51.0,46.0,30.03,WSW,242,0.0,0.0,83,0.00,,,0.00,,2013-03-17 04:33:00,
2013-03-17 00:43:00,51.0,46.0,30.03,WSW,242,0.0,0.0,83,0.00,,,0.00,,2013-03-17 04:43:00,
2013-03-17 00:53:00,50.0,45.0,30.03,WSW,242,0.0,0.0,84,0.00,,,0.00,,2013-03-17 04:53:00,
2013-03-17 01:03:00,50.0,45.0,30.03,WSW,242,0.0,0.0,84,0.00,,,0.00,,2013-03-17 05:03:00,
2013-03-17 01:12:00,50.0,45.0,30.03,WSW,242,0.0,0.0,84,0.00,,,0.00,,2013-03-17 05:12:00,
2013-03-17 01:22:00,50.0,46.0,30.03,WSW,242,0.0,0.0,85,0.00,,,0.00,,2013-03-17 05:22:00,
2013-03-17 01:32:00,49.0,45.0,30.02,WSW,242,0.0,0.0,85,0.00,,,0.00,,2013-03-17 05:32:00,
2013-03-17 01:42:00,49.0,45.0,30.02,WSW,242,0.0,0.0,85,0.00,,,0.00,,2013-03-17 05:42:00,
2013-03-17 01:52:00,49.0,45.0,30.02,WSW,242,0.0,0.0,85,0.00,,,0.00,,2013-03-17 05:52:00,
2013-03-17 02:02:00,49.0,45.0,30.02,WSW,242,0.0,0.0,86,0.00,,,0.00,,2013-03-17 06:02:00,
2013-03-17 02:12:00,49.0,45.0,30.02,WSW,242,0.0,0.0,86,0.00,,,0.00,,2013-03-17 06:12:00,
2013-03-17 02:22:00,48.0,44.0,30.02,WSW,242,0.0,0.0,86,0.00,,,0.00,,2013-03-17 06:22:00,
2013-03-17 02:32:00,48.0,44.0,30.02,WSW,242,0.0,0.0,86,0.00,,,0.00,,2013-03-17 06:32:00,
2013-03-17 02:42:00,48.0,44.0,30.02,WSW,242,0.0,0.0,86,0.00,,,0.00,,2013-03-17 06:42:00,
2013-03-17 02:52:00,48.0,44.0,30.02,WSW,242,0.0,0.0,87,0.00,,,0.00,,2013-03-17 06:52:00,
2013-03-17 03:02:00,48.0,44.0,30.01,WSW,240,0.0,0.0,87,0.00,,,0.00,,2013-03-17 07:02:00,
2013-03-17 03:12:00,48.0,44.0,30.01,WSW,240,0.0,0.0,87,0.00,,,0.00,,2013-03-17 07:12:00,
2013-03-17 03:22:00,48.0,45.0,30.01,WSW,240,0.0,0.0,88,0.00,,,0.00,,2013-03-17 07:22:00,
2013-03-17 03:32:00,47.0,44.0,30.01,WSW,240,0.0,0.0,88,0.00,,,0.00,,2013-03-17 07:32:00,
2013-03-17 03:42:00,47.0,44.0,30.01,WSW,240,0.0,0.0,88,0.00,,,0.00,,2013-03-17 07:42:00,
2013-03-17 03:52:00,48.0,45.0,30.01,ESE,117,0.0,0.0,89,0.00,,,0.00,,2013-03-17 07:52:00,
2013-03-17 04:03:00,48.0,45.0,30.00,ESE,117,0.0,0.0,89,0.00,,,0.00,,2013-03-17 08:03:00,
2013-03-17 04:13:00,49.0,46.0,30.00,ESE,117,0.0,0.0,90,0.00,,,0.00,,2013-03-17 08:13:00,
2013-03-17 04:22:00,49.0,46.0,30.00,ESE,117,0.0,0.0,90,0.00,,,0.00,,2013-03-17 08:22:00,
2013-03-17 04:32:00,49.0,46.0,29.99,ESE,117,0.0,0.0,90,0.00,,,0.00,,2013-03-17 08:32:00,
2013-03-17 04:42:00,49.0,46.0,29.99,ESE,117,0.0,0.0,90,0.00,,,0.00,,2013-03-17 08:42:00,
2013-03-17 04:52:00,49.0,46.0,29.98,ESE,117,0.0,0.0,90,0.00,,,0.00,,2013-03-17 08:52:00,
2013-03-17 05:03:00,49.0,46.0,29.98,ESE,117,0.0,0.0,90,0.00,,,0.00,,2013-03-17 09:03:00,
2013-03-17 05:13:00,49.0,46.0,29.98,ESE,117,0.0,0.0,90,0.00,,,0.00,,2013-03-17 09:13:00,
2013-03-17 05:22:00,49.0,46.0,29.98,ESE,117,0.0,0.0,90,0.00,,,0.00,,2013-03-17 09:22:00,
2013-03-17 05:32:00,49.0,46.0,29.98,ESE,117,0.0,0.0,91,0.00,,,0.00,,2013-03-17 09:32:00,
2013-03-17 05:43:00,49.0,46.0,29.98,ESE,117,0.0,0.0,91,0.00,,,0.00,,2013-03-17 09:43:00,
2013-03-17 05:53:00,49.0,46.0,29.98,ESE,117,0.0,0.0,91,0.00,,,0.00,,2013-03-17 09:53:00,
2013-03-17 06:03:00,49.0,46.0,29.98,ESE,117,0.0,0.0,91,0.00,,,0.00,,2013-03-17 10:03:00,
2013-03-17 06:13:00,49.0,46.0,29.98,ESE,117,0.0,0.0,91,0.00,,,0.00,,2013-03-17 10:13:00,
2013-03-17 06:23:00,49.0,46.0,29.98,ESE,117,0.0,0.0,91,0.00,,,0.00,,2013-03-17 10:23:00,
2013-03-17 06:33:00,49.0,46.0,30.01,ESE,117,0.0,0.0,91,0.00,,,0.00,,2013-03-17 10:33:00,
2013-03-17 06:42:00,49.0,46.0,30.01,ESE,117,0.0,0.0,91,0.00,,,0.00,,2013-03-17 10:42:00,
2013-03-17 06:53:00,49.0,46.0,30.01,ESE,117,0.0,0.0,91,0.00,,,0.00,,2013-03-17 10:53:00,
2013-03-17 07:03:00,49.0,47.0,30.00,ESE,117,0.0,0.0,92,0.00,,,0.00,,2013-03-17 11:03:00,
2013-03-17 07:12:00,49.0,47.0,30.00,ESE,117,0.0,0.0,92,0.00,,,0.00,,2013-03-17 11:12:00,
2013-03-17 07:22:00,49.0,47.0,30.01,ESE,117,0.0,0.0,92,0.00,,,0.00,,2013-03-17 11:22:00,
2013-03-17 07:32:00,49.0,47.0,30.01,ESE,117,0.0,0.0,92,0.00,,,0.00,,2013-03-17 11:32:00,
2013-03-17 07:42:00,49.0,47.0,30.01,ESE,117,0.0,0.0,92,0.00,,,0.00,,2013-03-17 11:42:00,
2013-03-17 07:52:00,49.0,47.0,30.02,ESE,117,0.0,0.0,92,0.00,,,0.00,,2013-03-17 11:52:00,
2013-03-17 08:02:00,49.0,47.0,30.02,ESE,117,0.0,0.0,92,0.00,,,0.00,,2013-03-17 12:02:00,
2013-03-17 08:12:00,49.0,47.0,30.02,ESE,117,0.0,0.0,92,0.00,,,0.00,,2013-03-17 12:12:00,
2013-03-17 08:22:00,49.0,47.0,30.03,ESE,117,0.0,0.0,92,0.00,,,0.00,,2013-03-17 12:22:00,
2013-03-17 08:33:00,50.0,48.0,30.03,East,80,0.0,0.0,93,0.00,,,0.00,,2013-03-17 12:33:00,
2013-03-17 08:43:00,50.0,48.0,30.03,East,80,0.0,0.0,93,0.00,,,0.00,,2013-03-17 12:43:00,
2013-03-17 08:52:00,52.0,50.0,30.03,East,80,0.0,0.0,93,0.00,,,0.00,,2013-03-17 12:52:00,
2013-03-17 09:02:00,53.0,51.0,30.03,East,80,0.0,0.0,94,0.00,,,0.00,,2013-03-17 13:02:00,
2013-03-17 09:13:00,53.0,51.0,30.03,East,80,0.0,0.0,94,0.00,,,0.00,,2013-03-17 13:13:00,
2013-03-17 09:22:00,55.0,53.0,30.04,East,92,0.0,1.0,94,0.00,,,0.00,,2013-03-17 13:22:00,
2013-03-17 09:32:00,58.0,56.0,30.03,ESE,113,2.0,4.0,94,0.00,,,0.00,,2013-03-17 13:32:00,
2013-03-17 09:42:00,58.0,56.0,30.03,ESE,113,2.0,4.0,94,0.00,,,0.00,,2013-03-17 13:42:00,
2013-03-17 09:52:00,60.0,58.0,30.05,East,94,0.0,0.0,92,0.00,,,0.00,,2013-03-17 13:52:00,
2013-03-17 10:02:00,63.0,58.0,30.03,East,92,4.0,6.0,84,0.00,,,0.00,,2013-03-17 14:02:00,
2013-03-17 10:12:00,63.0,58.0,30.03,East,92,4.0,6.0,84,0.00,,,0.00,,2013-03-17 14:12:00,
2013-03-17 10:22:00,64.0,57.0,30.04,East,99,4.0,6.0,77,0.00,,,0.00,,2013-03-17 14:22:00,
2013-03-17 10:32:00,66.0,56.0,30.04,ESE,111,3.0,5.0,71,0.00,,,0.00,,2013-03-17 14:32:00,
2013-03-17 10:42:00,66.0,56.0,30.04,ESE,111,3.0,5.0,71,0.00,,,0.00,,2013-03-17 14:42:00,
2013-03-17 10:53:00,69.0,55.0,30.04,East,86,3.0,5.0,62,0.00,,,0.00,,2013-03-17 14:53:00,
2013-03-17 11:02:00,71.0,55.0,30.04,ESE,105,5.0,7.0,58,0.00,,,0.00,,2013-03-17 15:02:00,
2013-03-17 11:12:00,71.0,55.0,30.04,ESE,105,5.0,7.0,58,0.00,,,0.00,,2013-03-17 15:12:00,
2013-03-17 11:23:00,71.0,54.0,30.05,East,94,1.0,5.0,56,0.00,,,0.00,,2013-03-17 15:23:00,
2013-03-17 11:33:00,72.0,54.0,30.05,ESE,111,2.0,5.0,54,0.00,,,0.00,,2013-03-17 15:33:00,
2013-03-17 11:43:00,72.0,54.0,30.05,ESE,111,2.0,5.0,54,0.00,,,0.00,,2013-03-17 15:43:00,
2013-03-17 11:53:00,71.0,54.0,30.05,SSE,153,3.0,7.0,56,0.00,,,0.00,,2013-03-17 15:53:00,
2013-03-17 12:03:00,72.0,56.0,30.04,ESE,123,3.0,6.0,57,0.00,,,0.00,,2013-03-17 16:03:00,
2013-03-17 12:12:00,72.0,56.0,30.04,ESE,123,3.0,6.0,57,0.00,,,0.00,,2013-03-17 16:12:00,
2013-03-17 12:23:00,74.0,55.0,30.04,ESE,104,3.0,7.0,52,0.00,,,0.00,,2013-03-17 16:23:00,
2013-03-17 12:33:00,74.0,55.0,30.04,West,276,0.0,2.0,51,0.00,,,0.00,,2013-03-17 16:33:00,
2013-03-17 12:43:00,74.0,55.0,30.04,West,276,0.0,2.0,51,0.00,,,0.00,,2013-03-17 16:43:00,
2013-03-17 12:52:00,75.0,56.0,30.03,SE,144,2.0,4.0,51,0.00,,,0.00,,2013-03-17 16:52:00,
2013-03-17 13:02:00,74.0,56.0,30.03,SSW,201,3.0,7.0,53,0.00,,,0.00,,2013-03-17 17:02:00,
2013-03-17 13:12:00,74.0,56.0,30.03,SSW,201,3.0,7.0,53,0.00,,,0.00,,2013-03-17 17:12:00,
2013-03-17 13:22:00,74.0,55.0,30.03,ESE,107,2.0,7.0,52,0.00,,,0.00,,2013-03-17 17:22:00,
2013-03-17 13:33:00,75.0,56.0,30.02,South,189,3.0,7.0,52,0.00,,,0.00,,2013-03-17 17:33:00,
2013-03-17 13:42:00,75.0,56.0,30.02,South,189,3.0,7.0,52,0.00,,,0.00,,2013-03-17 17:42:00,
2013-03-17 13:53:00,75.0,56.0,30.01,South,187,1.0,2.0,52,0.00,,,0.00,,2013-03-17 17:53:00,
2013-03-17 14:02:00,76.0,55.0,30.01,SW,232,4.0,7.0,49,0.00,,,0.00,,2013-03-17 18:02:00,
2013-03-17 14:12:00,76.0,55.0,30.01,SW,232,4.0,7.0,49,0.00,,,0.00,,2013-03-17 18:12:00,
2013-03-17 14:22:00,76.0,55.0,30.00,SW,215,1.0,4.0,49,0.00,,,0.00,,2013-03-17 18:22:00,
2013-03-17 14:32:00,75.0,55.0,29.99,SSW,199,1.0,4.0,50,0.00,,,0.00,,2013-03-17 18:32:00,
2013-03-17 14:42:00,75.0,55.0,29.99,SSW,199,1.0,4.0,50,0.00,,,0.00,,2013-03-17 18:42:00,
2013-03-17 14:52:00,75.0,56.0,29.98,SW,232,3.0,8.0,51,0.00,,,0.00,,2013-03-17 18:52:00,
2013-03-17 15:02:00,76.0,56.0,29.98,SW,218,4.0,9.0,50,0.00,,,0.00,,2013-03-17 19:02:00,
2013-03-17 15:12:00,76.0,56.0,29.98,SW,218,4.0,9.0,50,0.00,,,0.00,,2013-03-17 19:12:00,
2013-03-17 15:22:00,77.0,56.0,29.97,SW,214,5.0,11.0,49,0.00,,,0.00,,2013-03-17 19:22:00,
2013-03-17 15:33:00,76.0,55.0,29.97,SSW,204,3.0,10.0,49,0.00,,,0.00,,2013-03-17 19:33:00,
2013-03-17 15:42:00,76.0,55.0,29.97,SSW,204,3.0,10.0,49,0.00,,,0.00,,2013-03-17 19:42:00,
2013-03-17 15:53:00,76.0,55.0,29.96,SSW,200,8.0,14.0,49,0.00,,,0.00,,2013-03-17 19:53:00,
2013-03-17 16:02:00,75.0,56.0,29.96,SW,215,5.0,9.0,52,0.00,,,0.00,,2013-03-17 20:02:00,
2013-03-17 16:12:00,75.0,56.0,29.96,SW,215,5.0,9.0,52,0.00,,,0.00,,2013-03-17 20:12:00,
2013-03-17 16:22:00,74.0,55.0,29.96,South,180,5.0,7.0,51,0.00,,,0.00,,2013-03-17 20:22:00,
2013-03-17 16:33:00,74.0,55.0,29.95,SSW,210,3.0,7.0,51,0.00,,,0.00,,2013-03-17 20:33:00,
2013-03-17 16:42:00,74.0,55.0,29.95,SSW,210,3.0,7.0,51,0.00,,,0.00,,2013-03-17 20:42:00,
2013-03-17 16:52:00,75.0,56.0,29.94,SW,219,2.0,6.0,51,0.00,,,0.00,,2013-03-17 20:52:00,
2013-03-17 17:03:00,74.0,55.0,29.93,South,190,0.0,0.0,52,0.00,,,0.00,,2013-03-17 21:03:00,
2013-03-17 17:12:00,74.0,55.0,29.93,South,190,0.0,0.0,52,0.00,,,0.00,,2013-03-17 21:12:00,
2013-03-17 17:22:00,74.0,55.0,29.93,South,185,1.0,3.0,51,0.00,,,0.00,,2013-03-17 21:22:00,
2013-03-17 17:33:00,73.0,54.0,29.93,SSW,196,1.0,7.0,52,0.00,,,0.00,,2013-03-17 21:33:00,
2013-03-17 17:43:00,73.0,54.0,29.93,SSW,196,1.0,7.0,52,0.00,,,0.00,,2013-03-17 21:43:00,
2013-03-17 17:52:00,73.0,54.0,29.94,SW,222,1.0,3.0,51,0.00,,,0.00,,2013-03-17 21:52:00,
2013-03-17 18:03:00,73.0,53.0,29.94,SW,225,3.0,6.0,50,0.00,,,0.00,,2013-03-17 22:03:00,
2013-03-17 18:13:00,73.0,53.0,29.94,SSW,209,0.0,2.0,50,0.00,,,0.00,,2013-03-17 22:13:00,
2013-03-17 18:23:00,73.0,53.0,29.94,SSW,209,0.0,2.0,50,0.00,,,0.00,,2013-03-17 22:23:00,
2013-03-17 18:33:00,73.0,53.0,29.93,SSW,207,0.0,0.0,50,0.00,,,0.00,,2013-03-17 22:33:00,
2013-03-17 18:42:00,73.0,53.0,29.93,SSW,207,0.0,0.0,50,0.00,,,0.00,,2013-03-17 22:42:00,
2013-03-17 18:52:00,73.0,53.0,29.93,SSW,211,0.0,1.0,50,0.00,,,0.00,,2013-03-17 22:52:00,
2013-03-17 19:03:00,72.0,53.0,29.93,SSW,206,1.0,4.0,52,0.00,,,0.00,,2013-03-17 23:03:00,
2013-03-17 19:12:00,72.0,53.0,29.93,SSW,206,1.0,4.0,52,0.00,,,0.00,,2013-03-17 23:12:00,
2013-03-17 19:22:00,72.0,54.0,29.93,SSW,212,0.0,0.0,53,0.00,,,0.00,,2013-03-17 23:22:00,
2013-03-17 19:33:00,72.0,54.0,29.93,SSW,212,0.0,0.0,54,0.00,,,0.00,,2013-03-17 23:33:00,
2013-03-17 19:43:00,72.0,54.0,29.93,SSW,212,0.0,0.0,54,0.00,,,0.00,,2013-03-17 23:43:00,
2013-03-17 19:53:00,71.0,54.0,29.93,SSW,212,0.0,0.0,56,0.00,,,0.00,,2013-03-17 23:53:00,
2013-03-17 20:03:00,71.0,55.0,29.93,SSW,212,0.0,0.0,57,0.00,,,0.00,,2013-03-18 00:03:00,
2013-03-17 20:13:00,71.0,55.0,29.93,SSW,212,0.0,0.0,57,0.00,,,0.00,,2013-03-18 00:13:00,
2013-03-17 20:22:00,70.0,55.0,29.93,SSW,212,0.0,0.0,58,0.00,,,0.00,,2013-03-18 00:22:00,
2013-03-17 20:33:00,69.0,55.0,29.93,South,180,0.0,0.0,61,0.00,,,0.00,,2013-03-18 00:33:00,
2013-03-17 20:42:00,69.0,55.0,29.93,South,180,0.0,0.0,61,0.00,,,0.00,,2013-03-18 00:42:00,
2013-03-17 20:53:00,69.0,55.0,29.93,South,174,0.0,0.0,62,0.00,,,0.00,,2013-03-18 00:53:00,
2013-03-17 21:02:00,68.0,55.0,29.94,SSW,192,0.0,0.0,64,0.00,,,0.00,,2013-03-18 01:02:00,
2013-03-17 21:12:00,68.0,55.0,29.94,SSW,192,0.0,0.0,64,0.00,,,0.00,,2013-03-18 01:12:00,
2013-03-17 21:22:00,68.0,55.0,29.95,SSW,211,0.0,0.0,64,0.00,,,0.00,,2013-03-18 01:22:00,
2013-03-17 21:33:00,67.0,55.0,29.94,SSW,211,0.0,0.0,65,0.00,,,0.00,,2013-03-18 01:33:00,
2013-03-17 21:42:00,67.0,55.0,29.94,SSW,211,0.0,0.0,65,0.00,,,0.00,,2013-03-18 01:42:00,
2013-03-17 21:52:00,67.0,55.0,29.94,SW,221,0.0,0.0,66,0.00,,,0.00,,2013-03-18 01:52:00,
2013-03-17 22:02:00,67.0,56.0,29.95,SW,221,0.0,0.0,67,0.00,,,0.00,,2013-03-18 02:02:00,
2013-03-17 22:12:00,67.0,56.0,29.95,SW,221,0.0,0.0,67,0.00,,,0.00,,2013-03-18 02:12:00,
2013-03-17 22:22:00,66.0,56.0,29.95,SW,221,0.0,0.0,69,0.00,,,0.00,,2013-03-18 02:22:00,
2013-03-17 22:32:00,66.0,56.0,29.95,SW,221,0.0,0.0,71,0.00,,,0.00,,2013-03-18 02:32:00,
2013-03-17 22:42:00,66.0,56.0,29.95,SW,221,0.0,0.0,71,0.00,,,0.00,,2013-03-18 02:42:00,
2013-03-17 22:52:00,65.0,56.0,29.96,SW,224,0.0,0.0,73,0.00,,,0.00,,2013-03-18 02:52:00,
2013-03-17 23:03:00,64.0,56.0,29.96,SW,224,0.0,0.0,74,0.00,,,0.00,,2013-03-18 03:03:00,
2013-03-17 23:12:00,64.0,56.0,29.96,SW,224,0.0,0.0,74,0.00,,,0.00,,2013-03-18 03:12:00,
2013-03-17 23:22:00,64.0,56.0,29.96,SW,224,0.0,0.0,75,0.00,,,0.00,,2013-03-18 03:22:00,
2013-03-17 23:33:00,63.0,55.0,29.96,SW,224,0.0,0.0,76,0.00,,,0.00,,2013-03-18 03:33:00,
2013-03-17 23:42:00,63.0,55.0,29.96,SW,224,0.0,0.0,76,0.00,,,0.00,,2013-03-18 03:42:00,
2013-03-17 23:53:00,62.0,55.0,29.95,SE,140,0.0,0.0,78,0.00,,,0.00,,2013-03-18 03:53:00,